[[[{"header":{"parameterUnit":"kt","parameterCategory":2,"dx":1,"dy":1,"la1":30.253999710083008,"la2":30.299108505249023,"lo1":-89.0895004272461,"lo2":-89.04439544677734,"nx":28,"ny":28,"refTime":"2022-10-31T21:00:00:Z","depth":"0","parameterNumber":2,"parameterNumberName":"U-component_of_CURRENTS"},"data":[0.2938,0.2811,0.2791,0.2747,0.2758,0.2785,0.2904,0.3087,0.3434,0.4094,0.4673,0.5198,0.6002,0.6678,0.6854,0.6771,0.5988,0.5972,0.5567,0.5978,0.5952,0.5928,0.5744,0.6148,0.6147,0.4674,0.4662,0.4654,0.3041,0.2987,0.2904,0.2848,0.2843,0.2875,0.303,0.3114,0.3465,0.4005,0.449,0.5408,0.6048,0.6573,0.72,0.7071,0.6652,0.6859,0.6148,0.5962,0.6748,0.6618,0.7215,0.7215,0.7215,0.7216,0.7216,0.7216,0.3189,0.3131,0.3063,0.2999,0.2967,0.3018,0.3044,0.3225,0.3466,0.3921,0.4353,0.4949,0.573,0.6598,0.6761,0.7066,0.6714,0.6901,0.6678,0.6289,0.5985,0.6841,0.7513,0.7511,0.751,0.7508,0.7507,0,0.326,0.325,0.3222,0.3138,0.3097,0.3085,0.3137,0.3217,0.3438,0.3687,0.4191,0.456,0.5382,0.5895,0.647,0.67,0.6099,0.6613,0.6251,0.587,0.5481,0.5262,0.5826,0.647,0.6462,0.6457,0.6452,0.6449,0.328,0.3303,0.3275,0.3227,0.3213,0.3197,0.3176,0.325,0.3335,0.3718,0.3849,0.4352,0.4749,0.5455,0.574,0.6158,0.5691,0.6419,0.6072,0.5797,0.5554,0.5117,0.4915,0.6367,0.6377,0.6386,0.6393,0,0.3252,0.3284,0.3296,0.3294,0.3285,0.3279,0.3262,0.3279,0.3399,0.3557,0.3616,0.3899,0.4371,0.4569,0.492,0.5004,0.5204,0.5468,0.5569,0.5608,0.5606,0.537,0.5502,0.5326,0.6025,0.6035,0.6044,0,0.3199,0.3239,0.3241,0.326,0.3263,0.328,0.3292,0.3311,0.3377,0.3474,0.3528,0.3699,0.3811,0.411,0.421,0.4678,0.4608,0.4762,0.4798,0.48,0.482,0.46,0.4357,0.4492,0.4487,0.4482,0.4478,0,0.3066,0.3174,0.322,0.3234,0.3235,0.3246,0.3238,0.3262,0.3273,0.3373,0.3437,0.3559,0.368,0.3826,0.4031,0.3862,0.4429,0.4173,0.4569,0.4591,0.4737,0.476,0.4909,0.4472,0.447,0.4469,0.4467,0,0.2999,0.3049,0.3152,0.3139,0.3156,0.3185,0.3181,0.3214,0.3253,0.3256,0.3311,0.3284,0.3449,0.3337,0.3658,0.3495,0.3637,0.3703,0.3724,0.3944,0.3815,0.441,0.4819,0.4507,0.3934,0.3928,0.3922,0,0.2801,0.2952,0.2968,0.3051,0.3091,0.3034,0.3075,0.3065,0.3059,0.3099,0.308,0.3094,0.3027,0.3031,0.3147,0.3184,0.3395,0.3125,0.3461,0.3476,0.37,0.4033,0.4121,0.4694,0.3841,0.3849,0.3856,0,0.2657,0.2738,0.277,0.2782,0.2824,0.283,0.2887,0.2897,0.2927,0.2918,0.2987,0.2956,0.2922,0.2913,0.2847,0.2969,0.3269,0.2935,0.2937,0.3217,0.3646,0.3892,0.3971,0.3161,0.3168,0.3173,0.3791,0,0.2498,0.257,0.2633,0.2737,0.2736,0.2779,0.2766,0.2755,0.2729,0.2723,0.2723,0.2667,0.2668,0.2639,0.2608,0.274,0.279,0.2652,0.2661,0.2783,0.3038,0.3089,0.2444,0.2442,0.244,0.2438,0,0,0.232,0.2448,0.2449,0.2547,0.256,0.2498,0.2566,0.2561,0.2547,0.2549,0.2518,0.2483,0.2429,0.2468,0.2502,0.2439,0.2556,0.2503,0.2686,0.2714,0.2739,0.2989,0.304,0.2434,0.2433,0.2432,0.2432,0,0.2305,0.2329,0.2431,0.2446,0.2481,0.2467,0.2479,0.2486,0.2474,0.2489,0.2414,0.2396,0.2362,0.2352,0.2343,0.2404,0.2458,0.237,0.2559,0.2662,0.2693,0.272,0.2971,0.3019,0.2426,0.2427,0.2427,0,0.2203,0.2268,0.2304,0.2373,0.2389,0.2437,0.2383,0.2408,0.2438,0.2343,0.2369,0.2295,0.225,0.2259,0.2254,0.2256,0.2435,0.228,0.229,0.2351,0.2456,0.2489,0.2519,0.2148,0.2148,0.2148,0,0,0.2193,0.2272,0.2303,0.2375,0.2388,0.2384,0.2386,0.2371,0.2365,0.2351,0.2315,0.2283,0.2247,0.2254,0.2197,0.2228,0.2313,0.2251,0.2264,0.2275,0.2341,0.2449,0.248,0.2146,0.2146,0.2146,0,0,0.2185,0.2271,0.2268,0.2358,0.2361,0.2376,0.2389,0.2367,0.2339,0.2335,0.2279,0.2265,0.2239,0.2217,0.2203,0.2223,0.2163,0.2164,0.2268,0.2283,0.2295,0.2386,0.2148,0,0,0,0,0,0.2205,0.227,0.2267,0.2285,0.2356,0.2384,0.2381,0.236,0.2349,0.2344,0.231,0.2269,0.2204,0.219,0.2178,0.2222,0.2125,0.2129,0.2132,0.2265,0.2282,0.2296,0,0,0,0,0,0,0.2213,0.2241,0.2264,0.2296,0.231,0.2383,0.2356,0.235,0.2348,0.2342,0.228,0.2268,0.2226,0.2192,0.2182,0.2226,0.2151,0.2127,0.213,0.2133,0.2271,0.2284,0.2296,0,0,0,0,0,0.2219,0.2241,0.2379,0.2291,0.2303,0.2289,0.2355,0.2349,0.2338,0.2288,0.2276,0.2323,0.2228,0.2215,0.2186,0.2233,0.2157,0.2154,0.2129,0.2131,0.2133,0.2277,0,0,0,0,0,0,0.2223,0.2206,0.2378,0.2377,0.2282,0.2281,0.2289,0.2349,0.2281,0.2273,0.2328,0.2324,0.2229,0.2219,0.221,0.224,0.2163,0.2159,0.2157,0.2131,0.2133,0.2134,0,0,0,0,0,0,0.2194,0.2207,0.2377,0.2369,0.2366,0.2275,0.2282,0.225,0.2279,0.2322,0.2319,0.2327,0.2231,0.2222,0.2214,0.2165,0.2167,0.2163,0.2161,0.2159,0.2132,0.2134,0,0,0,0,0,0,0.2197,0.2208,0.2368,0.2366,0.2364,0.2347,0.224,0.2302,0.231,0.2324,0.2307,0.2306,0.2234,0.2226,0.2218,0.2172,0.2167,0.2167,0.2164,0.2163,0.2161,0,0,0,0,0,0,0,0.2199,0.2157,0.2392,0.2364,0.2362,0.2371,0.237,0.2369,0.231,0.2309,0.2308,0.2307,0.2186,0.2182,0.2179,0.2178,0,0,0.2167,0.2165,0,0,0,0,0,0,0,0,0.2149,0.2155,0.2392,0.2392,0.2392,0.2371,0.237,0.2369,0.231,0.2309,0.2308,0.2307,0.2185,0.2182,0.2179,0,0,0,0,0,0,0,0,0,0,0,0,0,0,0,0.2392,0.2392,0,0.2371,0.237,0.237,0.231,0.2309,0.2308,0.2307,0.2184,0.2182,0.2179,0,0,0,0,0,0,0,0,0,0,0,0,0,0,0,0,0,0,0,0,0,0,0,0,0,0,0,0,0,0,0,0,0,0,0,0,0,0,0,0,0,0,0,0,0,0,0,0,0,0,0,0,0,0,0,0,0,0,0,0,0,0,0,0,0,0,0,0,0]}],[{"header":{"parameterUnit":"kt","parameterCategory":2,"dx":1,"dy":1,"la1":30.253999710083008,"la2":30.299108505249023,"lo1":-89.0895004272461,"lo2":-89.04439544677734,"nx":28,"ny":28,"refTime":"2022-10-31T21:00:00:Z","depth":"0","parameterNumber":3,"parameterNumberName":"V-component_of_CURRENTS"},"data":[-0.0213,-0.0181,-0.0153,0.033,0.0554,0.1147,0.1576,0.2171,0.2642,0.3413,0.3782,0.3964,0.3234,0.0756,-0.1075,-0.153,-0.2165,-0.2207,-0.2629,-0.223,-0.2206,-0.2183,-0.2317,-0.2436,-0.2438,-0.3222,-0.3231,-0.3237,-0.026,-0.0276,-0.0251,-0.0092,0.0202,0.0231,0.0764,0.1197,0.197,0.2457,0.2949,0.3039,0.2299,0.1349,-0.0015,-0.0853,-0.1203,-0.1351,-0.1588,-0.1705,-0.0957,-0.1032,-0.0879,-0.0879,-0.0879,-0.0878,-0.0878,-0.0877,-0.0358,-0.0372,-0.0417,-0.0361,-0.0254,0.0102,0.0399,0.0727,0.1226,0.191,0.1952,0.2401,0.1844,0.1084,0.0525,-0.0499,-0.061,-0.0848,-0.1085,-0.1193,-0.1414,-0.058,-0.0339,-0.0341,-0.0343,-0.0344,-0.0346,0,-0.0433,-0.048,-0.0522,-0.0494,-0.0438,-0.0314,-0.0142,0.011,0.0343,0.0678,0.1212,0.1408,0.118,0.0946,0.0351,0.0016,-0.0868,-0.0571,-0.1021,-0.1295,-0.1422,-0.1613,-0.0887,-0.0592,-0.0595,-0.0598,-0.06,-0.0601,-0.0554,-0.0549,-0.0629,-0.0623,-0.0653,-0.0616,-0.0548,-0.0498,-0.0287,0.0068,0.0304,0.042,0.0614,0.038,-0.012,-0.047,-0.0907,-0.0639,-0.0898,-0.1293,-0.1581,-0.1738,-0.188,-0.064,-0.0635,-0.0631,-0.0627,0,-0.0627,-0.0695,-0.0699,-0.0773,-0.0781,-0.0762,-0.0713,-0.0612,-0.055,-0.0268,-0.0204,-0.016,-0.0112,-0.0401,-0.0553,-0.0844,-0.1133,-0.1041,-0.0862,-0.0875,-0.1367,-0.1607,-0.1624,-0.1776,-0.1018,-0.1016,-0.1014,0,-0.0774,-0.0757,-0.0864,-0.0867,-0.084,-0.0934,-0.0865,-0.091,-0.0828,-0.0642,-0.081,-0.0602,-0.0894,-0.0881,-0.1127,-0.1185,-0.1149,-0.1413,-0.1439,-0.1339,-0.133,-0.1635,-0.1874,-0.1471,-0.1474,-0.1475,-0.1477,0,-0.0888,-0.0941,-0.0942,-0.0973,-0.1072,-0.107,-0.1107,-0.1156,-0.1121,-0.1101,-0.0988,-0.1085,-0.1006,-0.116,-0.1311,-0.143,-0.1294,-0.1487,-0.1523,-0.1519,-0.1341,-0.1329,-0.1538,-0.148,-0.148,-0.1481,-0.1482,0,-0.1042,-0.1063,-0.1073,-0.1141,-0.1172,-0.1178,-0.1218,-0.1255,-0.1291,-0.1323,-0.1336,-0.1402,-0.1402,-0.1575,-0.1594,-0.1654,-0.1736,-0.1791,-0.1786,-0.1722,-0.1844,-0.1467,-0.1349,-0.1757,-0.1757,-0.176,-0.1762,0,-0.1139,-0.1152,-0.1235,-0.1246,-0.1288,-0.1417,-0.1444,-0.1516,-0.1584,-0.1574,-0.1689,-0.1685,-0.187,-0.1855,-0.1902,-0.1944,-0.1929,-0.2043,-0.1922,-0.1914,-0.1846,-0.1785,-0.1641,-0.1406,-0.18,-0.1796,-0.1793,0,-0.1224,-0.1355,-0.1355,-0.1381,-0.1505,-0.1543,-0.1601,-0.1673,-0.165,-0.1791,-0.1734,-0.1907,-0.194,-0.1964,-0.2054,-0.2055,-0.1991,-0.2111,-0.2111,-0.1956,-0.1867,-0.184,-0.1812,-0.2078,-0.2074,-0.2071,-0.1822,0,-0.1415,-0.1419,-0.1435,-0.1497,-0.1549,-0.1591,-0.1717,-0.1775,-0.1853,-0.1902,-0.1959,-0.2071,-0.2091,-0.2177,-0.2228,-0.2203,-0.2177,-0.2259,-0.2195,-0.2206,-0.2104,-0.2081,-0.2353,-0.2353,-0.2353,-0.2353,0,0,-0.1481,-0.1483,-0.1579,-0.1598,-0.1628,-0.1757,-0.1771,-0.1848,-0.1944,-0.1961,-0.2025,-0.2117,-0.219,-0.2194,-0.2249,-0.2315,-0.2263,-0.2226,-0.2242,-0.2231,-0.2219,-0.2119,-0.2097,-0.2353,-0.2353,-0.2353,-0.2353,0,-0.1555,-0.1591,-0.1575,-0.1637,-0.1718,-0.1781,-0.1791,-0.1901,-0.1955,-0.2011,-0.2069,-0.2126,-0.2199,-0.2235,-0.2256,-0.2316,-0.2244,-0.2364,-0.2265,-0.2246,-0.2234,-0.2223,-0.2123,-0.2104,-0.2354,-0.2354,-0.2354,0,-0.1643,-0.1663,-0.1656,-0.171,-0.1781,-0.1821,-0.1876,-0.1927,-0.1945,-0.1995,-0.2047,-0.2113,-0.2159,-0.2219,-0.224,-0.2221,-0.2199,-0.2264,-0.2266,-0.2167,-0.2141,-0.213,-0.2121,-0.2227,-0.2226,-0.2225,0,0,-0.1689,-0.1678,-0.1758,-0.1729,-0.1781,-0.1856,-0.1877,-0.1919,-0.198,-0.2008,-0.2045,-0.2094,-0.214,-0.2151,-0.2202,-0.2226,-0.2158,-0.2244,-0.225,-0.2255,-0.2161,-0.2135,-0.2127,-0.2222,-0.2222,-0.2222,0,0,-0.1721,-0.1774,-0.1795,-0.1766,-0.1832,-0.1916,-0.1931,-0.1955,-0.2014,-0.2023,-0.2048,-0.2057,-0.2109,-0.212,-0.2079,-0.2174,-0.2158,-0.2165,-0.214,-0.2148,-0.2154,-0.2027,-0.2063,0,0,0,0,0,-0.1809,-0.1767,-0.1785,-0.1786,-0.1838,-0.1904,-0.1917,-0.1964,-0.197,-0.1993,-0.2043,-0.2022,-0.2133,-0.2097,-0.2098,-0.2107,-0.2181,-0.2188,-0.2195,-0.2171,-0.218,-0.2187,0,0,0,0,0,0,-0.181,-0.1813,-0.1786,-0.1859,-0.187,-0.1905,-0.1933,-0.1948,-0.197,-0.1978,-0.202,-0.2023,-0.2048,-0.2094,-0.2096,-0.2104,-0.2063,-0.2184,-0.219,-0.2195,-0.2174,-0.2181,-0.2187,0,0,0,0,0,-0.1811,-0.1814,-0.1875,-0.1862,-0.1872,-0.1927,-0.1934,-0.1947,-0.1979,-0.2003,-0.2011,-0.2008,-0.2048,-0.205,-0.2095,-0.2104,-0.2062,-0.2062,-0.2188,-0.2193,-0.2197,-0.2177,0,0,0,0,0,0,-0.1812,-0.1852,-0.1879,-0.1884,-0.1859,-0.1928,-0.1939,-0.1945,-0.2005,-0.2012,-0.1991,-0.1996,-0.2048,-0.205,-0.2051,-0.2105,-0.2061,-0.2061,-0.2062,-0.2191,-0.2195,-0.2199,0,0,0,0,0,0,-0.185,-0.1856,-0.1882,-0.1876,-0.1882,-0.1929,-0.1938,-0.1942,-0.2003,-0.1992,-0.1997,-0.1992,-0.2014,-0.2049,-0.205,-0.2058,-0.206,-0.2061,-0.2061,-0.2061,-0.2194,-0.2197,0,0,0,0,0,0,-0.1854,-0.186,-0.1875,-0.188,-0.1885,-0.1962,-0.1933,-0.1971,-0.2032,-0.1988,-0.2033,-0.2033,-0.2011,-0.2015,-0.205,-0.2057,-0.2058,-0.206,-0.206,-0.2061,-0.2061,0,0,0,0,0,0,0,-0.1858,-0.1799,-0.1831,-0.1883,-0.1888,-0.1933,-0.1936,-0.1939,-0.2032,-0.2032,-0.2033,-0.2033,-0.2057,-0.2057,-0.2058,-0.2056,0,0,-0.206,-0.206,0,0,0,0,0,0,0,0,-0.1799,-0.1799,-0.1831,-0.1832,-0.1832,-0.1934,-0.1936,-0.1938,-0.2032,-0.2032,-0.2033,-0.2033,-0.2057,-0.2057,-0.2058,0,0,0,0,0,0,0,0,0,0,0,0,0,0,0,-0.1831,-0.1832,0,-0.1934,-0.1936,-0.1938,-0.2032,-0.2032,-0.2033,-0.2033,-0.2057,-0.2057,-0.2058,0,0,0,0,0,0,0,0,0,0,0,0,0,0,0,0,0,0,0,0,0,0,0,0,0,0,0,0,0,0,0,0,0,0,0,0,0,0,0,0,0,0,0,0,0,0,0,0,0,0,0,0,0,0,0,0,0,0,0,0,0,0,0,0,0,0,0,0,0]}]],[[{"header":{"parameterUnit":"kt","parameterCategory":2,"dx":1,"dy":1,"la1":30.253999710083008,"la2":30.299108505249023,"lo1":-89.0895004272461,"lo2":-89.04439544677734,"nx":28,"ny":28,"refTime":"2022-10-31T21:00:00:Z","depth":"2","parameterNumber":2,"parameterNumberName":"U-component_of_CURRENTS"},"data":[0.3153,0.3054,0.3078,0.3209,0.3315,0.3559,0.3788,0.3867,0.3945,0.3875,0.3829,0.3842,0.4118,0.3484,0.3442,0.3249,0.3434,0.3123,0.4438,0.4152,0.4205,0.4369,0.3926,0,0,0,0,0,0.3268,0.3247,0.32,0.3245,0.334,0.3415,0.3697,0.3787,0.4208,0.4329,0.4581,0.4218,0.4202,0.4339,0.4079,0.4063,0.3889,0.3941,0.3642,0.3712,0.3774,0.3431,0.3093,0.3088,0.3083,0.3079,0,0,0.3458,0.3411,0.3384,0.3359,0.3383,0.3547,0.3656,0.3871,0.4191,0.4524,0.4843,0.5019,0.5046,0.504,0.5034,0.4956,0.5275,0.4951,0.4962,0.4983,0.4717,0.4618,0.4711,0.4717,0.4722,0.4727,0.4732,0,0.3578,0.358,0.3571,0.3531,0.352,0.3571,0.3656,0.3792,0.4077,0.4353,0.4861,0.5132,0.5496,0.545,0.5635,0.5664,0.5427,0.5423,0.6097,0.4654,0.4553,0.4596,0.46,0.4673,0.4679,0.4684,0.4688,0.469,0.3641,0.367,0.369,0.3661,0.3666,0.3649,0.3653,0.3792,0.393,0.4357,0.4529,0.4957,0.5255,0.5734,0.5712,0.5937,0.6043,0.5567,0.5159,0.562,0.5674,0.5642,0.5613,0.4759,0.4751,0.4743,0.4738,0,0.3633,0.3724,0.3752,0.3795,0.3788,0.3763,0.381,0.3846,0.3999,0.4216,0.4291,0.4605,0.4987,0.5195,0.5539,0.5474,0.5713,0.581,0.5297,0.5304,0.5624,0.5594,0.592,0.5921,0.5922,0.5923,0.5924,0,0.3685,0.3699,0.3779,0.381,0.379,0.3857,0.3852,0.3896,0.4035,0.4165,0.4251,0.4461,0.4581,0.4873,0.4997,0.5275,0.5374,0.528,0.5366,0.4896,0.4854,0.5256,0.5238,0.5369,0.5365,0.5361,0.5358,0,0.3645,0.3752,0.3806,0.3843,0.3929,0.3911,0.3929,0.3991,0.404,0.4156,0.4263,0.4359,0.4499,0.4647,0.4878,0.4769,0.5247,0.5138,0.5259,0.5264,0.494,0.4907,0.5353,0.5353,0.5352,0.535,0.5349,0,0.3691,0.3741,0.3851,0.3872,0.3911,0.3943,0.3972,0.4017,0.4104,0.414,0.4208,0.4305,0.4373,0.4341,0.4609,0.4504,0.4666,0.4781,0.4804,0.4789,0.4844,0.4753,0.4771,0.5122,0.5118,0.5114,0.511,0,0.3585,0.372,0.3786,0.386,0.3951,0.4,0.4024,0.4067,0.4113,0.4181,0.4198,0.4293,0.4248,0.429,0.4301,0.449,0.4566,0.4369,0.4844,0.486,0.4772,0.485,0.4339,0.4724,0.5059,0.5064,0.5068,0,0.3527,0.3707,0.3705,0.3737,0.388,0.395,0.3994,0.408,0.4082,0.4154,0.4189,0.4235,0.4265,0.4301,0.4334,0.4351,0.4497,0.4419,0.4428,0.4603,0.4864,0.4794,0.4825,0.4523,0.4526,0.4529,0.5027,0,0.3521,0.359,0.3649,0.3768,0.3853,0.3956,0.4053,0.4091,0.409,0.4133,0.421,0.4289,0.4364,0.4358,0.4372,0.4419,0.4536,0.4532,0.4493,0.4509,0.4736,0.4768,0.4423,0.4425,0.4427,0.4428,0,0,0.3388,0.3515,0.3616,0.3709,0.3784,0.3884,0.3975,0.4028,0.4166,0.4169,0.4168,0.434,0.4371,0.4421,0.4398,0.4461,0.46,0.4384,0.4498,0.4505,0.4512,0.4726,0.4754,0.4431,0.4431,0.4432,0.4433,0,0.34,0.3482,0.356,0.3665,0.3822,0.3903,0.3924,0.4079,0.4081,0.4175,0.4217,0.426,0.4392,0.4408,0.4436,0.4482,0.4581,0.4511,0.4388,0.4507,0.4512,0.4517,0.4727,0.4751,0.4436,0.4436,0.4436,0,0.3365,0.3448,0.3503,0.3687,0.3793,0.391,0.3933,0.4048,0.4078,0.4145,0.4188,0.4276,0.4357,0.4421,0.445,0.4413,0.455,0.4464,0.4459,0.4452,0.4577,0.4583,0.4587,0.4525,0.4525,0.4524,0,0,0.3353,0.3418,0.3614,0.3705,0.3786,0.3905,0.3981,0.4018,0.4113,0.4133,0.4186,0.4237,0.4323,0.4323,0.4441,0.4482,0.4586,0.4468,0.4464,0.446,0.445,0.4573,0.4579,0.4523,0.4523,0.4523,0,0,0.3351,0.3525,0.3554,0.3684,0.3822,0.3988,0.4055,0.4074,0.4142,0.411,0.4164,0.4182,0.4272,0.4302,0.4277,0.4355,0.4382,0.4391,0.4286,0.4283,0.4279,0.4239,0.4263,0,0,0,0,0,0.3435,0.3512,0.3538,0.3581,0.3807,0.3987,0.4018,0.4082,0.4029,0.4068,0.411,0.4102,0.4293,0.4273,0.4301,0.4263,0.4503,0.4506,0.451,0.4396,0.4391,0.4387,0,0,0,0,0,0,0.3453,0.3501,0.3538,0.3705,0.3761,0.3982,0.3946,0.3965,0.4026,0.4019,0.4098,0.4107,0.4151,0.4261,0.4286,0.4247,0.4254,0.4504,0.4507,0.451,0.4394,0.439,0.4387,0,0,0,0,0,0.3468,0.3507,0.3838,0.3706,0.3753,0.388,0.3939,0.3955,0.3972,0.4094,0.4102,0.4013,0.4154,0.4174,0.4276,0.4233,0.4238,0.4247,0.4506,0.4509,0.4511,0.4393,0,0,0,0,0,0,0.348,0.3505,0.385,0.387,0.3658,0.3867,0.3894,0.3946,0.404,0.4055,0.4015,0.401,0.4157,0.4172,0.4187,0.4224,0.4225,0.4234,0.4239,0.4508,0.451,0.4512,0,0,0,0,0,0,0.3487,0.352,0.3859,0.3795,0.3807,0.3854,0.3879,0.3987,0.4037,0.3949,0.3953,0.4012,0.4119,0.4171,0.4183,0.4351,0.4214,0.4223,0.4229,0.4233,0.451,0.4511,0,0,0,0,0,0,0.3504,0.3532,0.3788,0.3798,0.3808,0.4022,0.3948,0.4153,0.4047,0.3941,0.4035,0.403,0.4118,0.4131,0.418,0.4344,0.4349,0.4215,0.422,0.4225,0.4227,0,0,0,0,0,0,0,0.3517,0.3296,0.3753,0.3801,0.3809,0.4058,0.4062,0.4065,0.4046,0.4041,0.4037,0.4032,0.4165,0.4174,0.4184,0.4337,0,0,0.4214,0.4218,0,0,0,0,0,0,0,0,0.3288,0.3294,0.3753,0.3759,0.3764,0.4059,0.4061,0.4064,0.4045,0.4041,0.4038,0.4034,0.4168,0.4175,0.4183,0,0,0,0,0,0,0,0,0,0,0,0,0,0,0,0.3754,0.3758,0,0.4059,0.4061,0.4064,0.4045,0.4042,0.4038,0.4036,0.417,0.4176,0.4182,0,0,0,0,0,0,0,0,0,0,0,0,0,0,0,0,0,0,0,0,0,0,0,0,0,0,0,0,0,0,0,0,0,0,0,0,0,0,0,0,0,0,0,0,0,0,0,0,0,0,0,0,0,0,0,0,0,0,0,0,0,0,0,0,0,0,0,0,0]}],[{"header":{"parameterUnit":"kt","parameterCategory":2,"dx":1,"dy":1,"la1":30.253999710083008,"la2":30.299108505249023,"lo1":-89.0895004272461,"lo2":-89.04439544677734,"nx":28,"ny":28,"refTime":"2022-10-31T21:00:00:Z","depth":"2","parameterNumber":3,"parameterNumberName":"V-component_of_CURRENTS"},"data":[0.0247,0.0278,0.03,0.0571,0.0696,0.097,0.1162,0.1528,0.1723,0.201,0.2029,0.1947,0.1245,0.0677,0.0031,-0.0415,-0.0519,-0.0492,-0.0428,-0.0336,-0.0329,-0.0802,-0.0794,0,0,0,0,0,0.0225,0.0218,0.0245,0.0349,0.0518,0.0528,0.0774,0.0998,0.139,0.1595,0.1813,0.1464,0.1063,0.0517,-0.028,-0.0738,-0.0792,-0.0871,-0.0858,-0.0857,-0.0858,-0.0856,-0.0857,-0.0858,-0.0859,-0.0859,0,0,0.0168,0.018,0.0167,0.0193,0.0261,0.0457,0.0568,0.0755,0.1005,0.1328,0.1308,0.1425,0.0948,0.0359,-0.0095,-0.0635,-0.0638,-0.0838,-0.0838,-0.0838,-0.0835,-0.0845,-0.083,-0.083,-0.0831,-0.0831,-0.0831,0,0.0132,0.0109,0.0102,0.012,0.014,0.0212,0.0268,0.0389,0.0491,0.0666,0.0921,0.0987,0.0685,0.0376,-0.0126,-0.0359,-0.0715,-0.0761,-0.0764,-0.0823,-0.0832,-0.0851,-0.0856,-0.0815,-0.0815,-0.0816,-0.0816,-0.0816,0.0087,0.0079,0.0053,0.0062,0.0025,0.0021,0.0034,0.0033,0.015,0.0297,0.0419,0.0386,0.0447,0.0157,-0.0238,-0.0546,-0.0626,-0.0757,-0.0851,-0.0891,-0.091,-0.0913,-0.0916,-0.0819,-0.0818,-0.0818,-0.0818,0,0.0053,0.0023,0.0021,-0.0022,-0.005,-0.0046,-0.0066,-0.0014,-0.0008,0.0128,0.0146,0.0114,0.0054,-0.017,-0.0352,-0.0558,-0.0709,-0.0778,-0.0751,-0.0764,-0.0913,-0.0917,-0.0882,-0.0882,-0.0882,-0.0883,-0.0883,0,0.0001,-0.0006,-0.006,-0.0064,-0.0068,-0.0133,-0.0127,-0.0167,-0.0146,-0.0077,-0.0193,-0.0098,-0.0326,-0.0385,-0.0574,-0.0709,-0.0671,-0.0882,-0.0897,-0.0876,-0.0877,-0.089,-0.0893,-0.0863,-0.0863,-0.0863,-0.0863,0,-0.0058,-0.0104,-0.01,-0.0113,-0.0186,-0.0204,-0.0236,-0.0293,-0.0294,-0.0322,-0.0258,-0.0378,-0.0376,-0.0496,-0.0666,-0.0704,-0.074,-0.0803,-0.0904,-0.0906,-0.0869,-0.087,-0.0863,-0.0863,-0.0863,-0.0863,-0.0863,0,-0.0153,-0.0175,-0.0173,-0.0246,-0.0248,-0.0267,-0.0278,-0.0322,-0.039,-0.0415,-0.0448,-0.0504,-0.0592,-0.0662,-0.077,-0.0764,-0.0862,-0.0919,-0.092,-0.0915,-0.0955,-0.0938,-0.0912,-0.0955,-0.0956,-0.0956,-0.0956,0,-0.021,-0.0227,-0.0285,-0.0297,-0.03,-0.0367,-0.04,-0.0471,-0.0509,-0.0528,-0.0633,-0.0656,-0.0778,-0.0784,-0.0845,-0.0909,-0.0955,-0.0969,-0.0951,-0.0951,-0.097,-0.0949,-0.0922,-0.0921,-0.0963,-0.0962,-0.0962,0,-0.0253,-0.0345,-0.0348,-0.0384,-0.044,-0.0433,-0.0483,-0.0528,-0.0553,-0.0636,-0.0637,-0.0762,-0.0799,-0.0833,-0.0911,-0.0947,-0.0971,-0.0977,-0.0977,-0.0987,-0.0944,-0.0958,-0.0955,-0.0967,-0.0966,-0.0965,-0.0967,0,-0.0363,-0.04,-0.0392,-0.0458,-0.046,-0.0459,-0.0526,-0.0567,-0.0635,-0.0699,-0.0745,-0.0813,-0.0849,-0.0903,-0.0965,-0.0994,-0.0991,-0.0997,-0.1018,-0.1001,-0.1006,-0.1002,-0.1046,-0.1046,-0.1046,-0.1046,0,0,-0.041,-0.0438,-0.0484,-0.0501,-0.0495,-0.0571,-0.0567,-0.0631,-0.0704,-0.0741,-0.0767,-0.0834,-0.0913,-0.0963,-0.0993,-0.1012,-0.0998,-0.1033,-0.1011,-0.1008,-0.1004,-0.1008,-0.1004,-0.1046,-0.1045,-0.1045,-0.1045,0,-0.0449,-0.0484,-0.0496,-0.0512,-0.0552,-0.0578,-0.0589,-0.0644,-0.0712,-0.075,-0.0824,-0.0875,-0.0918,-0.0979,-0.101,-0.1008,-0.1026,-0.1022,-0.1021,-0.1011,-0.1008,-0.1005,-0.1008,-0.1005,-0.1045,-0.1045,-0.1045,0,-0.0498,-0.0534,-0.0539,-0.0569,-0.0598,-0.0599,-0.0658,-0.068,-0.0722,-0.0787,-0.086,-0.0896,-0.0943,-0.0983,-0.1006,-0.1022,-0.1049,-0.106,-0.106,-0.1034,-0.1023,-0.1019,-0.1016,-0.1062,-0.1062,-0.1062,0,0,-0.0535,-0.056,-0.0581,-0.0577,-0.0579,-0.064,-0.0646,-0.0703,-0.0749,-0.0789,-0.0846,-0.0908,-0.0943,-0.0984,-0.1003,-0.1039,-0.1028,-0.1063,-0.1062,-0.1062,-0.1037,-0.1025,-0.1022,-0.1063,-0.1063,-0.1063,0,0,-0.0546,-0.0589,-0.0638,-0.0621,-0.064,-0.0671,-0.0664,-0.0723,-0.0791,-0.0832,-0.0895,-0.0913,-0.0954,-0.0978,-0.0981,-0.104,-0.104,-0.104,-0.1047,-0.1047,-0.1046,-0.1012,-0.1037,0,0,0,0,0,-0.0608,-0.0577,-0.062,-0.0621,-0.0661,-0.065,-0.0656,-0.0713,-0.0782,-0.0793,-0.0865,-0.0909,-0.0992,-0.0996,-0.1005,-0.1039,-0.1072,-0.1071,-0.1069,-0.1083,-0.1082,-0.1081,0,0,0,0,0,0,-0.0608,-0.0612,-0.0618,-0.0645,-0.0652,-0.0653,-0.0728,-0.0745,-0.0783,-0.0799,-0.0894,-0.091,-0.0949,-0.0994,-0.1002,-0.1034,-0.1034,-0.1072,-0.107,-0.1069,-0.1082,-0.1081,-0.1081,0,0,0,0,0,-0.0608,-0.0611,-0.0669,-0.0647,-0.0653,-0.0705,-0.0732,-0.0747,-0.0813,-0.0844,-0.0865,-0.0855,-0.0946,-0.0959,-0.0999,-0.103,-0.1029,-0.1032,-0.1071,-0.1069,-0.1068,-0.1082,0,0,0,0,0,0,-0.0608,-0.065,-0.0671,-0.0673,-0.0668,-0.0709,-0.0724,-0.0748,-0.0862,-0.0876,-0.0802,-0.0812,-0.0943,-0.0954,-0.0963,-0.1027,-0.1025,-0.1028,-0.103,-0.107,-0.1069,-0.1068,0,0,0,0,0,0,-0.0646,-0.0653,-0.0673,-0.0698,-0.0705,-0.0712,-0.0724,-0.0742,-0.0864,-0.082,-0.0827,-0.0805,-0.0925,-0.0949,-0.0957,-0.0983,-0.1022,-0.1025,-0.1026,-0.1028,-0.1069,-0.1068,0,0,0,0,0,0,-0.0649,-0.0655,-0.07,-0.0705,-0.0711,-0.0751,-0.0731,-0.0782,-0.0849,-0.0817,-0.0857,-0.0861,-0.0918,-0.0929,-0.0953,-0.0974,-0.0981,-0.1022,-0.1024,-0.1025,-0.1026,0,0,0,0,0,0,0,-0.0652,-0.0612,-0.0637,-0.071,-0.0716,-0.0684,-0.0687,-0.069,-0.085,-0.0853,-0.0857,-0.086,-0.1006,-0.1009,-0.1012,-0.0967,0,0,-0.1022,-0.1023,0,0,0,0,0,0,0,0,-0.061,-0.0611,-0.0637,-0.0636,-0.0635,-0.0685,-0.0687,-0.0689,-0.0851,-0.0853,-0.0856,-0.0858,-0.1007,-0.101,-0.1012,0,0,0,0,0,0,0,0,0,0,0,0,0,0,0,-0.0637,-0.0636,0,-0.0685,-0.0687,-0.0689,-0.0851,-0.0853,-0.0855,-0.0857,-0.1008,-0.101,-0.1012,0,0,0,0,0,0,0,0,0,0,0,0,0,0,0,0,0,0,0,0,0,0,0,0,0,0,0,0,0,0,0,0,0,0,0,0,0,0,0,0,0,0,0,0,0,0,0,0,0,0,0,0,0,0,0,0,0,0,0,0,0,0,0,0,0,0,0,0,0]}]],[[{"header":{"parameterUnit":"kt","parameterCategory":2,"dx":1,"dy":1,"la1":30.253999710083008,"la2":30.299108505249023,"lo1":-89.0895004272461,"lo2":-89.04439544677734,"nx":28,"ny":28,"refTime":"2022-10-31T21:00:00:Z","depth":"4","parameterNumber":2,"parameterNumberName":"U-component_of_CURRENTS"},"data":[0.0851,0.0938,0.097,0.1091,0.1204,0.1399,0.1549,0.1682,0.1734,0.2012,0.2107,0.2325,0.2498,0.2631,0.2684,0.272,0.2643,0.3047,0.304,0.3018,0.3033,0.3045,0.2973,0,0,0,0,0,0.0875,0.096,0.1004,0.1208,0.1365,0.1508,0.1721,0.1826,0.2112,0.2154,0.2348,0.247,0.2617,0.2728,0.272,0.2909,0.2994,0.2879,0.2844,0.3027,0.3043,0.2967,0,0,0,0,0,0,0.096,0.1017,0.1166,0.1282,0.1477,0.1636,0.1747,0.19,0.2102,0.2486,0.2486,0.2759,0.2941,0.2978,0.305,0.3088,0.3007,0.2873,0.2896,0.2913,0.2827,0.2738,0.262,0,0,0,0,0,0.1086,0.1216,0.1284,0.1443,0.1589,0.1764,0.1955,0.2047,0.2387,0.2643,0.2786,0.2891,0.3009,0.3099,0.3174,0.318,0.3327,0.3248,0.3254,0.3141,0.3098,0.3014,0.3009,0.3104,0.3106,0.3107,0.3108,0,0.1277,0.1283,0.1522,0.1599,0.1673,0.187,0.1985,0.2304,0.2441,0.2812,0.2848,0.3088,0.3218,0.3242,0.3351,0.3401,0.3332,0.3292,0.3173,0.3123,0.3037,0.3027,0.3017,0.3121,0.312,0.3119,0.3117,0,0.1369,0.1455,0.153,0.1701,0.1769,0.1886,0.2185,0.2315,0.2603,0.2806,0.2905,0.314,0.3303,0.3428,0.3489,0.3406,0.341,0.3337,0.347,0.3387,0.3049,0.3033,0.3142,0.3137,0.3133,0.313,0.3127,0,0.1494,0.1534,0.1662,0.1676,0.1804,0.1942,0.2155,0.2338,0.2577,0.2731,0.2962,0.3086,0.3257,0.3356,0.3381,0.3385,0.3493,0.3241,0.3164,0.3251,0.3234,0.3218,0.3196,0.3405,0.3404,0.3404,0.3404,0,0.1567,0.1623,0.1682,0.1699,0.1834,0.1956,0.2101,0.2339,0.2504,0.2753,0.2865,0.3079,0.319,0.327,0.3346,0.3306,0.3451,0.3336,0.315,0.3135,0.3208,0.3187,0.3403,0.3403,0.3403,0.3403,0.3403,0,0.1609,0.1622,0.1674,0.1788,0.1821,0.1905,0.2159,0.2296,0.2512,0.2629,0.2823,0.2881,0.3107,0.3051,0.3248,0.3216,0.3182,0.3164,0.3161,0.3002,0.2816,0.2865,0.304,0.3037,0.3035,0.3033,0.3031,0,0.1645,0.1652,0.1694,0.177,0.1784,0.1917,0.2046,0.2207,0.2351,0.2487,0.2617,0.2736,0.2797,0.2869,0.2964,0.2977,0.3038,0.2971,0.294,0.294,0.2784,0.2916,0.2958,0.2997,0.3002,0.3005,0.3007,0,0.1653,0.1671,0.1681,0.1707,0.1783,0.1829,0.1992,0.2135,0.2251,0.2382,0.2505,0.2652,0.271,0.275,0.278,0.2856,0.2974,0.2815,0.2813,0.2824,0.3052,0.2891,0.2894,0.2934,0.2939,0.2943,0.2984,0,0.1654,0.1667,0.1676,0.1711,0.1763,0.1793,0.1891,0.2004,0.2096,0.2147,0.2324,0.2362,0.2467,0.249,0.249,0.2666,0.2628,0.2559,0.253,0.2647,0.264,0.2659,0.2404,0.2401,0.24,0.2398,0,0,0.1661,0.1654,0.1675,0.1674,0.1706,0.176,0.1795,0.1852,0.193,0.201,0.2013,0.216,0.2188,0.2328,0.2394,0.2362,0.2376,0.2451,0.2575,0.2595,0.2613,0.2615,0.2635,0.2394,0.2394,0.2393,0.2392,0,0.1635,0.1653,0.1667,0.1671,0.1707,0.1723,0.1754,0.1783,0.1851,0.1934,0.1952,0.2042,0.2118,0.218,0.2205,0.2321,0.2325,0.235,0.2525,0.2555,0.2577,0.2597,0.2603,0.2623,0.2387,0.2388,0.2388,0,0.1622,0.1622,0.1636,0.1642,0.1647,0.1669,0.1656,0.1696,0.1759,0.1739,0.187,0.1891,0.192,0.2028,0.2089,0.2076,0.2275,0.2214,0.2224,0.2291,0.232,0.2345,0.2368,0.2077,0.2076,0.2076,0,0,0.1606,0.162,0.1622,0.1636,0.1648,0.1642,0.165,0.1673,0.1698,0.1719,0.1783,0.1847,0.1893,0.1962,0.1996,0.2095,0.2097,0.2179,0.2193,0.2205,0.2277,0.231,0.2335,0.2073,0.2073,0.2073,0,0,0.1597,0.1601,0.1616,0.1623,0.1638,0.1605,0.1624,0.1633,0.1672,0.171,0.1736,0.1758,0.1877,0.1891,0.1848,0.2036,0.1971,0.198,0.2051,0.2069,0.2083,0.2161,0.1856,0,0,0,0,0,0.1591,0.1596,0.161,0.1613,0.1593,0.159,0.1585,0.1605,0.1626,0.1646,0.1697,0.1722,0.1881,0.1842,0.1854,0.1962,0.2035,0.2042,0.2048,0.2158,0.2177,0.2193,0,0,0,0,0,0,0.1592,0.1592,0.161,0.1576,0.1574,0.1587,0.1585,0.1587,0.1627,0.1636,0.1702,0.172,0.1735,0.1838,0.1848,0.1952,0.1852,0.2038,0.2044,0.2049,0.2164,0.218,0.2193,0,0,0,0,0,0.1592,0.1593,0.157,0.1575,0.1572,0.1594,0.1588,0.159,0.1622,0.1662,0.168,0.1655,0.173,0.1749,0.1844,0.1948,0.1845,0.1849,0.2042,0.2046,0.205,0.2172,0,0,0,0,0,0,0.1593,0.1561,0.1569,0.1568,0.1616,0.1596,0.1596,0.1593,0.1649,0.1664,0.1614,0.162,0.1726,0.1742,0.1755,0.1948,0.1839,0.1843,0.1845,0.2045,0.2049,0.2052,0,0,0,0,0,0,0.1562,0.1559,0.1567,0.1619,0.1623,0.1598,0.1598,0.1629,0.1655,0.1597,0.1603,0.1617,0.1773,0.1736,0.1747,0.1785,0.1834,0.1838,0.1841,0.1843,0.2048,0.2051,0,0,0,0,0,0,0.156,0.1558,0.1618,0.1621,0.1624,0.1599,0.1629,0.1641,0.1598,0.1596,0.1609,0.1614,0.177,0.1778,0.1741,0.1773,0.1782,0.1835,0.1837,0.1839,0.184,0,0,0,0,0,0,0,0.1559,0.1581,0.1594,0.1623,0.1626,0.1559,0.1557,0.1555,0.1599,0.1603,0.1608,0.1612,0.1813,0.1817,0.1821,0.1764,0,0,0.1834,0.1836,0,0,0,0,0,0,0,0,0.1582,0.1582,0.1594,0.1595,0.1596,0.1559,0.1557,0.1555,0.16,0.1603,0.1607,0.161,0.1814,0.1817,0.182,0,0,0,0,0,0,0,0,0,0,0,0,0,0,0,0.1594,0.1595,0,0.1559,0.1557,0.1556,0.16,0.1603,0.1606,0.1609,0.1815,0.1817,0.182,0,0,0,0,0,0,0,0,0,0,0,0,0,0,0,0,0,0,0,0,0,0,0,0,0,0,0,0,0,0,0,0,0,0,0,0,0,0,0,0,0,0,0,0,0,0,0,0,0,0,0,0,0,0,0,0,0,0,0,0,0,0,0,0,0,0,0,0,0]}],[{"header":{"parameterUnit":"kt","parameterCategory":2,"dx":1,"dy":1,"la1":30.253999710083008,"la2":30.299108505249023,"lo1":-89.0895004272461,"lo2":-89.04439544677734,"nx":28,"ny":28,"refTime":"2022-10-31T21:00:00:Z","depth":"4","parameterNumber":3,"parameterNumberName":"V-component_of_CURRENTS"},"data":[0.1072,0.1158,0.1159,0.1179,0.1223,0.1334,0.1419,0.143,0.1371,0.1354,0.1124,0.1052,0.0626,0.0834,0.0199,0.012,0.0052,-0.0382,-0.0388,-0.045,-0.044,-0.0431,-0.028,0,0,0,0,0,0.1092,0.1132,0.119,0.1282,0.1377,0.1463,0.1565,0.1596,0.1602,0.1454,0.144,0.1137,0.0695,0.05,0.0221,0.0141,-0.017,-0.0195,-0.0241,-0.0444,-0.0432,-0.029,0,0,0,0,0,0,0.1113,0.1169,0.1281,0.1354,0.1467,0.154,0.1602,0.1564,0.1569,0.1475,0.1392,0.1081,0.0917,0.0492,0.0199,-0.0069,-0.0119,-0.0178,-0.0181,-0.0173,-0.0024,0.011,-0.0129,0,0,0,0,0,0.1137,0.1208,0.1299,0.1426,0.1504,0.1597,0.1668,0.1658,0.1653,0.1637,0.143,0.1175,0.0836,0.0487,0.0177,-0.0098,-0.0205,-0.0331,-0.0325,-0.0232,-0.0153,-0.0185,-0.0159,-0.0388,-0.0387,-0.0386,-0.0386,0,0.1115,0.1189,0.1373,0.1428,0.1504,0.1606,0.1643,0.1688,0.1669,0.1564,0.1496,0.1239,0.1068,0.0532,0.0276,-0.0123,-0.016,-0.03,-0.02,-0.0132,-0.0173,-0.0147,-0.0123,-0.0376,-0.0377,-0.0378,-0.0378,0,0.1081,0.118,0.1311,0.1442,0.1488,0.1555,0.1648,0.1639,0.1624,0.156,0.1527,0.1317,0.1027,0.0768,0.0401,0.0251,-0.0032,-0.0134,0.0089,0.0041,-0.0119,-0.0098,-0.0361,-0.0364,-0.0367,-0.037,-0.0372,0,0.1058,0.1149,0.1277,0.1351,0.1449,0.1498,0.1566,0.1568,0.1527,0.1489,0.1381,0.1279,0.103,0.0806,0.061,0.0299,0.0276,0.0122,0.0053,0.0243,0.0261,0.017,0.0182,0.009,0.0092,0.0094,0.0096,0,0.0992,0.1131,0.1255,0.1291,0.1395,0.1442,0.1487,0.1464,0.1468,0.138,0.1326,0.1173,0.1077,0.087,0.064,0.067,0.0312,0.0308,0.0136,0.0132,0.0186,0.0194,0.0098,0.0099,0.0099,0.01,0.0101,0,0.0965,0.1056,0.12,0.1298,0.1326,0.1378,0.1405,0.1436,0.1361,0.1327,0.1248,0.1159,0.1042,0.1009,0.0738,0.0816,0.0663,0.0537,0.0523,0.0438,0.0395,0.0398,0.0357,0.0361,0.0364,0.0366,0.0369,0,0.0884,0.1031,0.1079,0.1189,0.126,0.1263,0.1294,0.1297,0.1274,0.1232,0.1146,0.1099,0.1071,0.1039,0.0947,0.0784,0.069,0.0817,0.0476,0.0466,0.0445,0.0392,0.0667,0.041,0.0405,0.0401,0.0399,0,0.0812,0.0954,0.0969,0.1025,0.1091,0.1127,0.1169,0.119,0.119,0.117,0.1143,0.1095,0.1037,0.0998,0.0944,0.0855,0.0746,0.0792,0.0783,0.0699,0.0475,0.0446,0.0418,0.0684,0.068,0.0678,0.0427,0,0.0809,0.0871,0.0911,0.0989,0.1022,0.108,0.1094,0.111,0.1112,0.1091,0.1059,0.1,0.0939,0.0925,0.0898,0.0828,0.0782,0.0743,0.0702,0.0706,0.0597,0.0575,0.0806,0.0804,0.0802,0.0801,0,0,0.0712,0.0797,0.0815,0.0877,0.0911,0.0911,0.0976,0.0982,0.1001,0.0993,0.0989,0.0902,0.0867,0.0822,0.0837,0.0814,0.0729,0.0814,0.072,0.0713,0.0704,0.0601,0.0582,0.0798,0.0797,0.0797,0.0796,0,0.0716,0.0732,0.0794,0.0822,0.0875,0.0883,0.0907,0.0935,0.0946,0.0964,0.0914,0.0881,0.0848,0.0801,0.0772,0.0797,0.0697,0.0784,0.0834,0.0711,0.0705,0.0699,0.0598,0.0582,0.0792,0.0792,0.0792,0,0.0667,0.0701,0.0723,0.0772,0.0795,0.0839,0.0818,0.0867,0.0897,0.0833,0.0862,0.0816,0.0756,0.0747,0.074,0.0723,0.0656,0.0714,0.072,0.0713,0.0581,0.0576,0.0571,0.0629,0.0629,0.0629,0,0,0.0665,0.071,0.0735,0.077,0.079,0.0805,0.0824,0.0836,0.084,0.0845,0.0821,0.0786,0.0752,0.0744,0.0708,0.0705,0.0619,0.0699,0.0707,0.0713,0.071,0.0582,0.0577,0.0628,0.0628,0.0628,0,0,0.0657,0.0703,0.0703,0.0743,0.077,0.0785,0.0813,0.0816,0.0821,0.0825,0.0776,0.0768,0.0763,0.0725,0.0731,0.0698,0.0659,0.0657,0.0743,0.0751,0.0759,0.0765,0.0677,0,0,0,0,0,0.0668,0.0699,0.0698,0.0707,0.0743,0.0782,0.0786,0.0796,0.0793,0.0819,0.0796,0.0762,0.0712,0.0717,0.0708,0.0719,0.0627,0.0627,0.0628,0.0735,0.0744,0.0753,0,0,0,0,0,0,0.0671,0.0681,0.0698,0.0713,0.0721,0.078,0.0756,0.0758,0.0791,0.0793,0.0767,0.076,0.0723,0.0718,0.071,0.0722,0.0679,0.0627,0.0627,0.0628,0.0738,0.0746,0.0753,0,0,0,0,0,0.0674,0.0682,0.0741,0.0712,0.0719,0.0738,0.0755,0.0757,0.0786,0.0744,0.074,0.0798,0.0723,0.0716,0.0713,0.0727,0.0684,0.0682,0.0627,0.0628,0.0628,0.0742,0,0,0,0,0,0,0.0676,0.0675,0.0742,0.0744,0.0712,0.0736,0.0741,0.0757,0.0735,0.0733,0.0768,0.0768,0.0723,0.0717,0.0712,0.0731,0.0688,0.0685,0.0684,0.0628,0.0628,0.0628,0,0,0,0,0,0,0.0671,0.0676,0.0743,0.0743,0.0745,0.0734,0.0739,0.0713,0.0732,0.0758,0.0759,0.0768,0.0717,0.0719,0.0714,0.0674,0.0691,0.0688,0.0687,0.0686,0.0628,0.0628,0,0,0,0,0,0,0.0673,0.0678,0.0742,0.0743,0.0745,0.0766,0.0708,0.0733,0.077,0.0757,0.077,0.077,0.0717,0.0714,0.0716,0.0678,0.0675,0.0691,0.0689,0.0688,0.0687,0,0,0,0,0,0,0,0.0675,0.0644,0.0734,0.0744,0.0745,0.0765,0.0765,0.0765,0.077,0.077,0.077,0.077,0.0705,0.0702,0.0699,0.0681,0,0,0.0691,0.069,0,0,0,0,0,0,0,0,0.0642,0.0643,0.0734,0.0735,0.0735,0.0765,0.0765,0.0765,0.077,0.077,0.077,0.077,0.0704,0.0702,0.07,0,0,0,0,0,0,0,0,0,0,0,0,0,0,0,0.0734,0.0735,0,0.0765,0.0765,0.0765,0.077,0.077,0.077,0.077,0.0703,0.0702,0.07,0,0,0,0,0,0,0,0,0,0,0,0,0,0,0,0,0,0,0,0,0,0,0,0,0,0,0,0,0,0,0,0,0,0,0,0,0,0,0,0,0,0,0,0,0,0,0,0,0,0,0,0,0,0,0,0,0,0,0,0,0,0,0,0,0,0,0,0,0]}]]]